Ketchikan, AK

10:43 PM AKDT on September 20, 2018 (GMT -0800)
Ketchikan International

Weather History for PAKT - June, 2018

Change the Weather History Date:

Saturday, June 16, 2018

  Actual Average Record
Temperature  
Mean Temperature 60 °F -  
Max Temperature 73 °F 61 °F 85 °F (1950)
Min Temperature 51 °F 46 °F 38 °F (1973)
Degree Days  
Heating Degree Days 6    
Growing Degree Days 10 (Base 50)    
Moisture  
Dew Point 47 °F    
Average Humidity 63    
Maximum Humidity 83    
Minimum Humidity 43    
Precipitation  
Precipitation 0.00 in - - ()
Sea Level Pressure  
Sea Level Pressure 30.24 in    
Wind  
Wind Speed 10 mph (NW)    
Max Wind Speed 13 mph    
Max Gust Speed -    
Visibility 10 miles    
Events      
Averages and records for this station are not official NWS values.
T = Trace of Precipitation, MM = Missing Value Source: NWS Daily Summary

Daily Weather History Graph

Daily Weather History Graph

Search for Another Location

Airport or City:

Astronomy

Jun. 16, 2018 Rise Set
Actual Time 4:04 AM AKDT 9:30 PM AKDT
Civil Twilight 3:05 AM AKDT 10:30 PM AKDT
Nautical Twilight 1:19 AM AKDT 12:15 AM AKDT
Astronomical Twilight Sun does not set Sun does not set
Moon 7:40 AM AKDT (6/16) 11:59 PM AKDT (6/16)
Length of Visible Light 19h 25m
Length of Day
17h 26m
Waxing Crescent, 13% of the Moon is Illuminated
Jun 16
Waxing Crescent
Jun 20
First Quarter
Jun 27
Full
Jul 5
Last Quarter
Jul 12
New

Hourly Weather History & Observations

Time (AKDT) Temp. Dew Point Humidity Pressure Visibility Wind Dir Wind Speed Gust Speed Precip Events Conditions
12:53 AM 55.0 °F 46.9 °F 74% 30.26 in 10.0 mi NNW 11.5 mph - N/A   Clear
1:53 AM 52.0 °F 46.0 °F 80% 30.25 in 10.0 mi NW 6.9 mph - N/A   Clear
2:53 AM 52.0 °F 46.0 °F 80% 30.26 in 10.0 mi NW 8.1 mph - N/A   Clear
3:53 AM 53.1 °F 46.0 °F 77% 30.27 in 10.0 mi NNW 10.4 mph - N/A   Clear
4:53 AM 51.1 °F 46.0 °F 83% 30.26 in 10.0 mi NW 8.1 mph - N/A   Clear
5:53 AM 54.0 °F 46.9 °F 77% 30.27 in 10.0 mi NW 8.1 mph - N/A   Clear
6:10 AM 55.0 °F 46.9 °F 74% 30.26 in 10.0 mi NNW 9.2 mph - N/A   Clear
6:53 AM 57.2 °F 46.4 °F 67% 30.27 in 10.0 mi NW 10.4 mph - N/A   Clear
7:53 AM 60.8 °F 44.6 °F 55% 30.27 in 10.0 mi NNW 12.7 mph - N/A   Clear
8:53 AM 60.8 °F 46.4 °F 59% 30.26 in 10.0 mi NNW 11.5 mph - N/A   Clear
9:53 AM 62.6 °F 46.4 °F 55% 30.26 in 10.0 mi North 12.7 mph - N/A   Clear
10:53 AM 64.4 °F 46.4 °F 52% 30.26 in 10.0 mi NNW 12.7 mph - N/A   Clear
11:53 AM 64.4 °F 46.4 °F 52% 30.25 in 10.0 mi NW 11.5 mph - N/A   Clear
12:53 PM 68.0 °F 44.6 °F 43% 30.24 in 10.0 mi NW 10.4 mph - N/A   Clear
1:53 PM 66.0 °F 46.9 °F 50% 30.25 in 10.0 mi NNW 12.7 mph - N/A   Clear
2:53 PM 66.9 °F 46.9 °F 49% 30.24 in 10.0 mi NW 9.2 mph - N/A   Clear
3:53 PM 68.0 °F 46.9 °F 47% 30.23 in 10.0 mi NW 11.5 mph - N/A   Clear
4:53 PM 68.0 °F 46.4 °F 46% 30.22 in 10.0 mi NNW 11.5 mph - N/A   Clear
5:53 PM 68.0 °F 46.4 °F 46% 30.22 in 10.0 mi NW 9.2 mph - N/A   Clear
6:53 PM 66.2 °F 48.2 °F 52% 30.22 in 10.0 mi NNW 12.7 mph - N/A   Clear
7:53 PM 62.6 °F 50.0 °F 63% 30.22 in 10.0 mi NW 8.1 mph - N/A   Clear
8:53 PM 62.1 °F 50.0 °F 65% 30.22 in 10.0 mi NW 6.9 mph - N/A   Clear
9:53 PM 59.0 °F 50.0 °F 72% 30.22 in 10.0 mi WNW 4.6 mph - N/A   Clear
10:53 PM 57.9 °F 50.0 °F 75% 30.21 in 10.0 mi WNW 4.6 mph - N/A   Clear
11:53 PM 57.9 °F 50.0 °F 75% 30.21 in 10.0 mi WNW 4.6 mph - N/A   Clear